Regional Weather Roundup
Issued by NWS

Home | Current Version | Previous Version | Text Only | Print | Product List | Glossary Off
Versions: 1 2 3 4 5 6 7 8 9 10 11 12 13 14 15 16 17 18 19 20 21 22 23 24 25 26 27 28 29 30 31 32 33 34 35 36 37 38 39 40 41 42 43 44 45 46 47 48 49 50

000
ASUS43 KFSD 191102
RWRSD

WEATHER ROUNDUP FOR SOUTH DAKOTA
NATIONAL WEATHER SERVICE SIOUX FALLS SD
600 AM CDT FRI SEP 19 2014

NOTE: "FAIR" INDICATES FEW OR NO CLOUDS BELOW 12,000 FEET WITH NO
SIGNIFICANT WEATHER AND/OR OBSTRUCTIONS TO VISIBILITY.


SDZ001>005-009-010-012>017-191200-
NORTHWEST AND NORTH CENTRAL SOUTH DAKOTA

CITY           SKY/WX    TMP DP  RH WIND       PRES   REMARKS
FAITH            N/A     61  57  87 SW7       29.72F
MOBRIDGE       CLOUDY    64  63  96 S10       29.67S
$$

SDZ012>016-024>037-041>051-057-063-072>074-191200-
SOUTHWEST AND SOUTH CENTRAL SOUTH DAKOTA

CITY           SKY/WX    TMP DP  RH WIND       PRES   REMARKS
RAPID CTY ARPT CLOUDY    65  51  60 N8        29.77F
PIERRE         CLOUDY    64  61  90 S10       29.67R
CUSTER         MOCLDY    63  45  51 CALM      29.92R
ELLSWORTH AFB  CLOUDY    65  53  63 NW9       29.78S
PHILIP         PTCLDY    62  60  93 NW5       29.72R
PINE RIDGE     PTCLDY    55  54  96 SE5       29.83R
WINNER         FAIR      66  63  90 SW8G20    29.75R
$$

SDZ004>011-016>023-039-040-191200-
NORTHEAST SOUTH DAKOTA

CITY           SKY/WX    TMP DP  RH WIND       PRES   REMARKS
ABERDEEN       CLOUDY    63  59  87 S18G28    29.67F
WATERTOWN      CLOUDY    59  57  93 S16       29.80F FOG
SISSETON         N/A     64  59  83 S9        29.73F
$$

SDZ017-020-022-023-036>040-048>070-191200-
SOUTHEAST SOUTH DAKOTA

CITY           SKY/WX    TMP DP  RH WIND       PRES   REMARKS
SIOUX FALLS    CLOUDY    63  59  87 S17G23    29.84S
HURON          CLOUDY    62  58  86 SE10G17   29.76F
MITCHELL       CLOUDY    63  61  93 SE10      29.77F
YANKTON        CLOUDY    64  61  88 S14G21    29.82F
$$

ABBREVIATIONS USED IN REMARKS
   TC - TEMPERATURE IN CELSIUS
  WCI - WIND CHILL INDEX
   HX - HEAT INDEX
  VSB - VISIBILITY



USA.gov is the U.S. government's official web portal to all federal, state and local government web resources and services.